CAPE
0 1 0 1 1 1 2 0 0 0 0 2 2 0 0 0 1 2 1 2 2 4 7 10 11 10 5
2 1 0 1 1 0 1 0 0 0 0 0 0 1 2 1 0 0 0 2 5 8 9 11 11 6 4
1 1 0 0 1 0 0 0 0 0 0 0 0 0 0 0 0 1 4 4 5 6 5 4 4 4 11
1 1 2 1 0 0 1 0 0 0 0 0 0 0 0 0 1 0 0 0 0 1 3 4 6 5 6
1 2 2 2 1 0 0 0 0 0 0 0 0 0 0 0 0 0 0 0 0 1 2 4 4 5 2
1 0 0 0 0 0 0 0 0 0 0 0 0 0 0 0 0 0 0 0 1 2 3 5 5 5 3
0 0 0 0 0 0 0 0 0 0 0 0 0 0 0 0 0 0 0 0 1 1 2 4 4 5 2
0 0 0 0 0 0 0 0 0 0 0 0 0 0 0 0 0 0 0 0 0 0 0 0 0 3 6
0 0 0 0 1 0 0 0 0 0 0 0 0 0 0 0 0 0 0 0 0 0 0 0 0 1 1
0 0 0 0 0 0 0 0 0 0 0 0 0 0 0 0 0 0 0 0 0 0 0 0 0 0 0
0 0 0 0 0 0 0 0 0 0 0 0 0 0 0 0 0 0 0 0 0 0 0 0 0 1 1
0 0 0 0 0 0 0 0 0 0 0 0 0 0 0 1 2 0 0 0 0 0 0 0 0 0 0
0 0 0 0 0 0 0 0 0 0 1 0 0 0 0 0 0 0 0 0 0 0 0 0 0 0 0
0 0 0 0 0 0 0 0 0 0 0 1 0 0 0 0 0 0 0 0 0 0 0 0 0 0 0
0 0 0 0 0 0 0 0 0 0 0 0 0 0 0 0 0 0 0 0 0 0 0 1 0 0 0
0 0 0 0 0 0 0 0 0 0 0 0 0 0 0 0 2 0 0 0 0 0 0 0 0 1 0
0 0 0 0 0 0 0 0 0 0 0 0 0 0 1 0 0 0 0 0 0 0 0 0 0 0 0
CIN
0 0 0 0 0 0 0 0 0 0 0 -1 0 0 0 -1 0 -1 -1 0 0 0 0 -1 -1 0 0
0 0 0 0 0 0 0 0 0 0 0 0 0 0 0 -1 -1 0 0 0 0 0 -1 -1 -1 0 -1
0 0 0 0 0 0 0 0 0 0 0 0 0 0 0 0 0 0 0 0 -1 -1 0 0 -1 -1 0
0 0 0 0 0 0 0 0 0 0 0 0 0 0 0 0 0 0 0 0 0 -1 0 0 0 0 -1
0 0 0 0 0 0 0 0 0 0 0 0 0 0 0 0 0 0 0 0 0 0 0 0 0 0 -1
0 0 0 0 0 0 0 0 0 0 0 0 0 0 0 0 0 0 0 0 0 0 0 -1 -1 0 0
0 0 0 0 0 0 0 0 0 0 0 0 0 0 0 0 0 0 0 0 0 0 0 -1 -1 0 0
0 0 0 0 0 0 0 0 0 0 0 0 0 0 0 0 0 0 0 0 0 0 0 0 0 -1 -1
0 0 0 0 0 0 0 0 0 0 0 0 0 0 0 0 0 0 0 0 0 0 0 0 0 0 -2
0 0 0 0 0 0 0 0 0 0 0 0 0 0 0 0 0 0 0 0 0 0 0 0 0 0 0
0 0 0 0 0 0 0 0 0 0 0 -1 0 0 0 0 0 0 0 0 0 0 0 0 0 0 -1
0 0 0 0 0 0 0 0 0 0 0 -1 0 0 0 0 0 0 0 0 0 0 0 0 0 0 0
0 0 0 0 0 0 0 0 0 0 -2 0 0 0 0 0 0 0 0 0 0 0 0 0 0 0 0
0 0 0 0 0 0 0 0 0 0 0 -1 -3 0 0 0 0 0 0 0 0 0 0 0 0 0 0
0 0 0 0 0 -2 0 0 0 0 0 0 -2 0 0 0 0 0 0 0 -1 0 0 0 0 -1 0
0 0 0 0 0 0 0 0 0 0 0 0 0 0 0 0 -1 0 0 0 0 0 0 -1 -1 0 0
0 0 0 0 0 0 0 0 0 0 0 0 0 0 0 0 0 0 0 0 0 0 -1 -1 0 0 0
Wind_Speed
31 29 26 25 22 21 22 19 20 23 23 31 29 28 31 34 35 35 35 35 34 34 33 35 34 35 34
29 26 26 23 25 18 17 23 24 26 25 29 29 30 31 32 35 34 33 32 33 32 33 33 34 34 34
28 25 23 16 22 24 27 26 25 27 27 27 28 29 30 32 32 32 32 31 31 32 32 34 34 35 35
24 22 25 23 21 23 25 24 26 24 23 25 28 30 31 32 31 31 33 33 33 33 33 33 33 34 35
25 23 22 22 23 24 23 23 22 24 27 29 28 28 30 31 31 32 32 31 31 31 31 31 32 33 34
24 26 26 22 22 22 24 25 29 23 25 29 28 30 29 28 27 27 26 26 27 27 28 30 31 32 33
23 23 24 22 21 23 25 27 29 28 30 32 25 28 24 22 22 21 22 23 25 26 28 29 30 31 32
18 20 21 21 22 24 26 27 27 27 24 27 23 25 23 20 21 21 20 21 23 26 29 32 33 34 34
19 22 23 25 24 24 26 26 28 24 22 23 22 25 23 21 18 17 22 28 27 29 31 34 35 35 36
24 25 25 25 23 21 20 21 22 24 18 23 23 25 24 20 16 25 25 25 27 30 33 32 33 34 36
23 23 22 21 19 18 17 19 21 22 20 23 21 23 23 24 23 22 24 25 28 29 28 29 31 31 34
21 21 21 21 19 19 19 19 19 21 21 21 22 21 22 24 24 23 27 28 27 29 28 28 29 31 31
21 22 21 20 21 21 22 22 23 22 22 19 19 20 19 20 20 25 30 28 31 28 31 33 34 32 34
22 23 20 21 22 22 23 25 28 26 23 22 21 21 24 23 23 20 24 27 32 34 35 37 34 31 29
23 22 21 22 24 22 23 26 28 30 30 28 26 25 24 23 26 25 26 26 30 34 35 41 39 36 33
22 21 21 24 25 23 23 25 30 32 33 32 32 32 31 27 21 25 26 28 28 31 32 42 47 39 35
22 21 22 24 27 26 26 27 30 33 34 33 33 33 38 39 31 26 28 29 31 34 35 41 48 46 38
Wind_Direction
288 287 289 284 290 295 299 303 308 300 302 299 304 306 305 303 304 303 304 304 304 303 302 299 299 298 298
287 289 289 289 291 301 306 308 305 303 305 304 305 305 305 305 304 303 305 305 305 303 302 301 300 299 298
297 293 297 304 302 299 300 305 305 305 305 305 307 308 307 307 306 306 306 306 305 303 302 301 299 298 297
297 309 296 304 308 311 309 309 309 311 311 313 312 311 310 309 308 308 307 306 304 303 302 301 299 298 297
296 307 309 310 309 312 314 317 318 315 312 314 316 315 312 310 308 308 307 307 306 305 304 303 301 300 299
306 305 310 319 317 316 312 314 313 323 321 316 318 315 315 315 314 314 314 313 312 311 309 306 304 302 301
315 313 314 319 321 318 316 315 314 318 320 317 325 321 325 325 324 322 321 319 317 315 313 310 308 306 305
335 330 326 325 323 322 319 319 319 321 327 322 332 326 330 329 325 324 326 326 323 320 316 311 308 306 304
340 334 329 325 323 322 319 320 321 326 332 325 331 331 332 333 335 336 331 324 321 319 316 312 309 307 305
331 329 328 326 325 326 328 325 326 328 338 333 332 336 333 333 335 327 329 329 326 322 318 317 314 311 307
336 336 336 336 337 337 336 330 326 323 329 330 332 330 329 327 328 329 329 330 328 327 327 324 320 318 314
343 342 340 339 340 338 336 333 330 324 325 324 325 328 326 324 322 326 325 324 325 325 326 326 323 321 318
346 343 342 342 339 336 335 333 329 326 325 324 322 323 323 320 318 320 321 323 321 321 321 318 318 320 319
345 344 348 343 338 338 335 333 327 325 326 324 323 321 320 319 318 315 319 318 317 317 315 313 314 317 318
344 346 347 341 336 339 336 332 326 321 320 322 322 319 317 316 316 315 316 316 316 315 315 306 308 311 313
347 347 344 337 335 337 335 330 323 319 317 318 319 318 318 317 309 314 317 317 319 317 315 304 294 306 310
347 346 342 336 333 332 331 327 322 318 316 317 316 316 313 312 319 319 316 318 319 317 313 305 290 295 308